| time (UTC) | temp F | wind direction | speed MPH | gust MPH | rain 1hr in | rain 24hr in | rain mn in | humidity % | barometer mb |
| 20260906201204 | 73 | 309 | 3.0 | 8.0 | 0.01 | 0.06 | 0.06 | 66 | 1015.0 |
| 20260906200704 | 72 | 51 | 2.0 | 5.0 | 0.01 | 0.06 | 0.06 | 69 | 1015.0 |
| 20260906200203 | 72 | 7 | 1.0 | 3.0 | 0.03 | 0.06 | 0.06 | 71 | 1015.0 |
| 20260906195704 | 72 | 327 | 2.0 | 3.0 | 0.03 | 0.06 | 0.06 | 73 | 1015.0 |
| 20260906195203 | 71 | 326 | 2.0 | 3.0 | 0.03 | 0.06 | 0.06 | 73 | 1014.9 |
| 20260906194704 | 71 | 45 | 1.0 | 3.0 | 0.03 | 0.06 | 0.06 | 76 | 1014.9 |
| 20260906194204 | 69 | 12 | 1.0 | 5.0 | 0.03 | 0.06 | 0.06 | 78 | 1015.0 |
| 20260906193703 | 69 | 5 | 2.0 | 5.0 | 0.03 | 0.06 | 0.06 | 75 | 1015.0 |
| 20260906192704 | 68 | 316 | 2.0 | 3.0 | 0.06 | 0.06 | 0.06 | 82 | 1015.0 |
| 20260906192204 | 67 | 58 | 1.0 | 2.0 | 0.06 | 0.06 | 0.06 | 84 | 1015.0 |
| 20260906191705 | 65 | 57 | 0.0 | 3.0 | 0.06 | 0.06 | 0.06 | 84 | 1015.1 |
| 20260906190704 | 66 | 68 | 1.0 | 2.0 | 0.05 | 0.05 | 0.05 | 82 | 1015.2 |
| 20260906190204 | 67 | 51 | 1.0 | 2.0 | 0.03 | 0.03 | 0.03 | 84 | 1015.1 |
| 20260906185704 | 67 | 51 | 0.0 | 1.0 | 0.03 | 0.03 | 0.03 | 86 | 1015.0 |
| 20260906185204 | 66 | 51 | 0.0 | 0.0 | 0.03 | 0.03 | 0.03 | 86 | 1015.1 |
| 20260906184703 | 65 | 51 | 0.0 | 0.0 | 0.03 | 0.03 | 0.03 | 84 | 1015.2 |
| 20260906184204 | 66 | 51 | 0.0 | 0.0 | 0.03 | 0.03 | 0.03 | 84 | 1015.2 |
| 20260906183704 | 66 | 51 | 0.0 | 1.0 | 0.03 | 0.03 | 0.03 | 81 | 1015.2 |
| 20260906183204 | 67 | 51 | 0.0 | 2.0 | 0.02 | 0.02 | 0.02 | 79 | 1015.4 |
| 20260906182704 | 68 | 47 | 2.0 | 3.0 | 0.00 | 0.00 | 0.00 | 76 | 1015.3 |
| 20260906182204 | 68 | 60 | 2.0 | 3.0 | 0.00 | 0.00 | 0.00 | 76 | 1015.3 |
| 20260906181704 | 68 | 286 | 1.0 | 2.0 | 0.00 | 0.00 | 0.00 | 77 | 1015.3 |
| 20260906181205 | 68 | 286 | 1.0 | 3.0 | 0.00 | 0.00 | 0.00 | 77 | 1015.3 |
| 20260906180704 | 68 | 254 | 2.0 | 3.0 | 0.00 | 0.00 | 0.00 | 76 | 1015.3 |
| 20260906180204 | 68 | 251 | 1.0 | 3.0 | 0.00 | 0.00 | 0.00 | 76 | 1015.3 |
| 20260906175704 | 68 | 251 | 1.0 | 3.0 | 0.00 | 0.00 | 0.00 | 75 | 1015.3 |
| 20260906175204 | 68 | 322 | 2.0 | 3.0 | 0.00 | 0.00 | 0.00 | 75 | 1015.3 |
| 20260906174704 | 68 | 239 | 1.0 | 3.0 | 0.00 | 0.00 | 0.00 | 77 | 1015.3 |
| 20260906173704 | 66 | 209 | 1.0 | 3.0 | 0.00 | 0.00 | 0.00 | 79 | 1015.3 |
| 20260906173204 | 67 | 213 | 1.0 | 3.0 | 0.00 | 0.00 | 0.00 | 77 | 1015.4 |
| 20260906172704 | 68 | 244 | 3.0 | 9.0 | 0.00 | 0.00 | 0.00 | 75 | 1015.5 |
| 20260906172204 | 68 | 270 | 3.0 | 9.0 | 0.00 | 0.00 | 0.00 | 73 | 1015.4 |
| 20260906171704 | 69 | 234 | 3.0 | 8.0 | 0.00 | 0.00 | 0.00 | 71 | 1015.4 |
| 20260906171204 | 70 | 197 | 2.0 | 7.0 | 0.00 | 0.00 | 0.00 | 69 | 1015.5 |
| 20260906170704 | 69 | 227 | 2.0 | 6.0 | 0.00 | 0.00 | 0.00 | 69 | 1015.3 |
| 20260906170204 | 70 | 314 | 2.0 | 3.0 | 0.00 | 0.00 | 0.00 | 69 | 1015.4 |
| 20260906165704 | 69 | 229 | 2.0 | 7.0 | 0.00 | 0.00 | 0.00 | 71 | 1015.3 |
| 20260906165204 | 67 | 282 | 1.0 | 3.0 | 0.00 | 0.00 | 0.00 | 73 | 1015.4 |
| 20260906164204 | 68 | 333 | 2.0 | 6.0 | 0.00 | 0.00 | 0.00 | 68 | 1015.2 |
| 20260906162704 | 69 | 278 | 1.0 | 8.0 | 0.00 | 0.00 | 0.00 | 67 | 1015.3 |
| 20260906162204 | 69 | 33 | 2.0 | 5.0 | 0.00 | 0.00 | 0.00 | 67 | 1015.2 |
| 20260906161705 | 69 | 350 | 2.0 | 7.0 | 0.00 | 0.00 | 0.00 | 69 | 1015.3 |
| 20260906161204 | 69 | 33 | 1.0 | 3.0 | 0.00 | 0.00 | 0.00 | 70 | 1015.4 |
| 20260906160204 | 69 | 33 | 1.0 | 3.0 | 0.00 | 0.00 | 0.00 | 71 | 1015.4 |
| 20260906155705 | 69 | 21 | 1.0 | 3.0 | 0.00 | 0.00 | 0.00 | 69 | 1015.4 |
| 20260906155204 | 69 | 14 | 1.0 | 2.0 | 0.00 | 0.00 | 0.00 | 71 | 1015.3 |
| 20260906154704 | 69 | 49 | 1.0 | 5.0 | 0.00 | 0.00 | 0.00 | 70 | 1015.3 |
| 20260906154204 | 68 | 97 | 1.0 | 3.0 | 0.00 | 0.00 | 0.00 | 72 | 1015.4 |
| 20260906153704 | 69 | 85 | 2.0 | 8.0 | 0.00 | 0.00 | 0.00 | 72 | 1015.6 |
| 20260906153203 | 69 | 105 | 1.0 | 2.0 | 0.00 | 0.00 | 0.00 | 72 | 1015.5 |
| 20260906152204 | 68 | 28 | 1.0 | 3.0 | 0.00 | 0.00 | 0.00 | 73 | 1015.4 |
| 20260906151706 | 67 | 28 | 1.0 | 3.0 | 0.00 | 0.00 | 0.00 | 73 | 1015.5 |
| 20260906151204 | 68 | 24 | 3.0 | 7.0 | 0.00 | 0.00 | 0.00 | 71 | 1015.5 |
| 20260906150704 | 69 | 358 | 2.0 | 7.0 | 0.00 | 0.00 | 0.00 | 71 | 1015.4 |
| 20260906150205 | 69 | 21 | 1.0 | 3.0 | 0.00 | 0.00 | 0.00 | 72 | 1015.5 |
| 20260906145703 | 69 | 37 | 2.0 | 8.0 | 0.00 | 0.00 | 0.00 | 73 | 1015.5 |
| 20260906145204 | 68 | 328 | 2.0 | 6.0 | 0.00 | 0.00 | 0.00 | 73 | 1015.5 |
| 20260906144705 | 68 | 304 | 2.0 | 6.0 | 0.00 | 0.00 | 0.00 | 72 | 1015.5 |
| 20260906143703 | 68 | 41 | 2.0 | 6.0 | 0.00 | 0.00 | 0.00 | 72 | 1015.5 |
| 20260906143204 | 69 | 310 | 2.0 | 10.0 | 0.00 | 0.00 | 0.00 | 72 | 1015.5 |
| 20260906142704 | 68 | 302 | 2.0 | 7.0 | 0.00 | 0.00 | 0.00 | 72 | 1015.4 |
| 20260906142203 | 68 | 0 | 3.0 | 8.0 | 0.00 | 0.00 | 0.00 | 74 | 1015.3 |
| 20260906141704 | 67 | 310 | 3.0 | 8.0 | 0.00 | 0.00 | 0.00 | 74 | 1015.3 |
| 20260906141204 | 67 | 68 | 1.0 | 5.0 | 0.00 | 0.00 | 0.00 | 74 | 1015.3 |
| 20260906140205 | 67 | 51 | 1.0 | 5.0 | 0.00 | 0.00 | 0.00 | 77 | 1015.2 |
| 20260906135203 | 65 | 67 | 2.0 | 5.0 | 0.00 | 0.00 | 0.00 | 77 | 1015.3 |
| 20260906134704 | 66 | 10 | 1.0 | 3.0 | 0.00 | 0.00 | 0.00 | 78 | 1015.3 |
| 20260906134204 | 66 | 307 | 0.0 | 5.0 | 0.00 | 0.00 | 0.00 | 78 | 1015.3 |
| 20260906133704 | 66 | 43 | 1.0 | 3.0 | 0.00 | 0.00 | 0.00 | 77 | 1015.2 |
| 20260906133206 | 66 | 42 | 1.0 | 3.0 | 0.00 | 0.00 | 0.00 | 77 | 1015.2 |
| 20260906132705 | 65 | 33 | 2.0 | 3.0 | 0.00 | 0.00 | 0.00 | 78 | 1015.2 |
| 20260906132204 | 65 | 41 | 2.0 | 6.0 | 0.00 | 0.00 | 0.00 | 80 | 1015.2 |
| 20260906131204 | 63 | 318 | 1.0 | 2.0 | 0.00 | 0.00 | 0.00 | 80 | 1015.2 |
| 20260906130704 | 64 | 318 | 1.0 | 2.0 | 0.00 | 0.00 | 0.00 | 81 | 1015.3 |
| 20260906130204 | 64 | 318 | 1.0 | 3.0 | 0.00 | 0.00 | 0.00 | 82 | 1015.3 |
| 20260906124204 | 63 | 319 | 2.0 | 3.0 | 0.00 | 0.00 | 0.00 | 84 | 1015.2 |
| 20260906123704 | 63 | 319 | 1.0 | 3.0 | 0.00 | 0.00 | 0.00 | 84 | 1015.2 |
| 20260906123204 | 63 | 319 | 1.0 | 3.0 | 0.00 | 0.00 | 0.00 | 84 | 1015.2 |
| 20260906122704 | 62 | 318 | 2.0 | 3.0 | 0.00 | 0.00 | 0.00 | 84 | 1015.2 |
| 20260906122204 | 62 | 318 | 1.0 | 2.0 | 0.00 | 0.00 | 0.00 | 84 | 1015.1 |
| 20260906121704 | 62 | 318 | 0.0 | 2.0 | 0.00 | 0.00 | 0.00 | 84 | 1015.1 |
| 20260906121204 | 62 | 318 | 0.0 | 2.0 | 0.00 | 0.00 | 0.00 | 85 | 1015.1 |
| 20260906120704 | 62 | 317 | 1.0 | 3.0 | 0.00 | 0.00 | 0.00 | 85 | 1015.0 |
| 20260906120203 | 62 | 324 | 2.0 | 8.0 | 0.00 | 0.00 | 0.00 | 85 | 1015.1 |
| 20260906115704 | 62 | 302 | 2.0 | 3.0 | 0.00 | 0.00 | 0.00 | 85 | 1015.0 |
| 20260906115203 | 62 | 322 | 0.0 | 1.0 | 0.00 | 0.00 | 0.00 | 86 | 1014.8 |
| 20260906114704 | 62 | 322 | 0.0 | 0.0 | 0.00 | 0.00 | 0.00 | 86 | 1014.8 |
| 20260906114204 | 61 | 322 | 0.0 | 0.0 | 0.00 | 0.00 | 0.00 | 87 | 1014.7 |
| 20260906113204 | 61 | 322 | 1.0 | 2.0 | 0.00 | 0.00 | 0.00 | 87 | 1014.7 |
| 20260906112705 | 61 | 322 | 0.0 | 0.0 | 0.00 | 0.00 | 0.00 | 87 | 1014.7 |
| 20260906112203 | 61 | 322 | 0.0 | 0.0 | 0.00 | 0.00 | 0.00 | 88 | 1014.6 |
| 20260906110203 | 61 | 322 | 0.0 | 0.0 | 0.00 | 0.00 | 0.00 | 88 | 1014.5 |
| 20260906105704 | 61 | 322 | 0.0 | 0.0 | 0.00 | 0.00 | 0.00 | 88 | 1014.3 |
| 20260906105204 | 61 | 322 | 0.0 | 0.0 | 0.00 | 0.00 | 0.00 | 88 | 1014.2 |
| 20260906104703 | 61 | 321 | 0.0 | 0.0 | 0.00 | 0.00 | 0.00 | 88 | 1014.2 |
| 20260906103704 | 61 | 322 | 0.0 | 2.0 | 0.00 | 0.00 | 0.00 | 88 | 1014.1 |
| 20260906102704 | 61 | 321 | 0.0 | 0.0 | 0.00 | 0.00 | 0.00 | 88 | 1013.7 |
| 20260906101704 | 61 | 321 | 0.0 | 0.0 | 0.00 | 0.00 | 0.00 | 88 | 1013.7 |
| 20260906101204 | 61 | 321 | 0.0 | 0.0 | 0.00 | 0.00 | 0.00 | 88 | 1013.6 |
| 20260906100204 | 61 | 321 | 0.0 | 0.0 | 0.00 | 0.00 | 0.00 | 88 | 1013.6 |
| 20260906095704 | 61 | 321 | 0.0 | 0.0 | 0.00 | 0.00 | 0.00 | 88 | 1013.6 |
| 20260906095204 | 61 | 321 | 0.0 | 0.0 | 0.00 | 0.00 | 0.00 | 88 | 1013.5 |
| 20260906094704 | 61 | 321 | 0.0 | 0.0 | 0.00 | 0.00 | 0.00 | 88 | 1013.4 |
| 20260906094204 | 61 | 321 | 0.0 | 0.0 | 0.00 | 0.00 | 0.00 | 89 | 1013.4 |
| 20260906093704 | 61 | 321 | 0.0 | 1.0 | 0.00 | 0.00 | 0.00 | 89 | 1013.5 |
| 20260906093205 | 60 | 321 | 0.0 | 1.0 | 0.00 | 0.00 | 0.00 | 89 | 1013.5 |
| 20260906092704 | 60 | 321 | 0.0 | 0.0 | 0.00 | 0.00 | 0.00 | 89 | 1013.4 |
| 20260906092204 | 60 | 321 | 0.0 | 0.0 | 0.00 | 0.00 | 0.00 | 89 | 1013.3 |
| 20260906091704 | 60 | 321 | 0.0 | 0.0 | 0.00 | 0.00 | 0.00 | 88 | 1013.0 |
| 20260906091204 | 60 | 321 | 0.0 | 0.0 | 0.00 | 0.00 | 0.00 | 89 | 1013.1 |
| 20260906090704 | 60 | 321 | 0.0 | 0.0 | 0.00 | 0.00 | 0.00 | 89 | 1013.0 |
| 20260906085704 | 60 | 321 | 0.0 | 0.0 | 0.00 | 0.00 | 0.00 | 89 | 1013.1 |
| 20260906085204 | 60 | 321 | 0.0 | 0.0 | 0.00 | 0.00 | 0.00 | 89 | 1013.1 |
| 20260906084704 | 60 | 321 | 0.0 | 0.0 | 0.00 | 0.00 | 0.00 | 89 | 1013.1 |
| 20260906084204 | 60 | 321 | 0.0 | 0.0 | 0.00 | 0.00 | 0.00 | 89 | 1013.1 |
| 20260906083704 | 61 | 321 | 0.0 | 0.0 | 0.00 | 0.00 | 0.00 | 89 | 1013.2 |
| 20260906083204 | 61 | 321 | 0.0 | 0.0 | 0.00 | 0.00 | 0.00 | 89 | 1013.2 |
| 20260906082704 | 61 | 321 | 0.0 | 0.0 | 0.00 | 0.00 | 0.00 | 89 | 1013.1 |
| 20260906082204 | 61 | 321 | 0.0 | 0.0 | 0.00 | 0.00 | 0.00 | 89 | 1013.0 |
| 20260906081704 | 61 | 321 | 0.0 | 0.0 | 0.00 | 0.00 | 0.00 | 89 | 1013.0 |
| 20260906081205 | 61 | 321 | 0.0 | 0.0 | 0.00 | 0.00 | 0.00 | 89 | 1013.0 |
| 20260906080704 | 62 | 321 | 0.0 | 0.0 | 0.00 | 0.00 | 0.00 | 89 | 1013.0 |
| 20260906080203 | 62 | 321 | 0.0 | 0.0 | 0.00 | 0.00 | 0.00 | 89 | 1013.0 |
| 20260906075704 | 61 | 321 | 0.0 | 0.0 | 0.00 | 0.00 | 0.00 | 89 | 1013.1 |
| 20260906074703 | 62 | 321 | 0.0 | 0.0 | 0.00 | 0.00 | 0.00 | 89 | 1012.9 |
| 20260906073704 | 62 | 321 | 0.0 | 0.0 | 0.00 | 0.00 | 0.00 | 89 | 1013.1 |
| 20260906073204 | 62 | 321 | 0.0 | 1.0 | 0.00 | 0.00 | 0.00 | 89 | 1013.2 |
| 20260906072703 | 62 | 321 | 1.0 | 2.0 | 0.00 | 0.00 | 0.00 | 89 | 1013.1 |
| 20260906072205 | 61 | 321 | 0.0 | 1.0 | 0.00 | 0.00 | 0.00 | 89 | 1013.1 |
| 20260906071704 | 61 | 321 | 0.0 | 0.0 | 0.00 | 0.00 | 0.00 | 89 | 1013.0 |
| 20260906071204 | 61 | 321 | 0.0 | 1.0 | 0.00 | 0.00 | 0.00 | 89 | 1013.0 |
| 20260906070203 | 61 | 321 | 1.0 | 3.0 | 0.00 | 0.00 | 0.00 | 89 | 1012.9 |
| 20260906065704 | 61 | 60 | 0.0 | 0.0 | 0.00 | 0.00 | 0.00 | 89 | 1012.9 |
| 20260906065204 | 61 | 60 | 0.0 | 0.0 | 0.00 | 0.00 | 0.00 | 89 | 1012.8 |
| 20260906064704 | 61 | 60 | 0.0 | 0.0 | 0.00 | 0.00 | 0.00 | 89 | 1012.8 |
| 20260906064204 | 61 | 60 | 0.0 | 0.0 | 0.00 | 0.00 | 0.00 | 89 | 1012.8 |
| 20260906063704 | 61 | 60 | 0.0 | 0.0 | 0.00 | 0.00 | 0.00 | 89 | 1012.8 |
| 20260906063204 | 61 | 60 | 0.0 | 0.0 | 0.00 | 0.00 | 0.00 | 89 | 1012.9 |
| 20260906061704 | 61 | 60 | 0.0 | 0.0 | 0.00 | 0.00 | 0.00 | 89 | 1012.8 |
| 20260906061204 | 61 | 60 | 0.0 | 0.0 | 0.00 | 0.00 | 0.00 | 89 | 1012.9 |
| 20260906060704 | 61 | 60 | 0.0 | 0.0 | 0.00 | 0.00 | 0.00 | 89 | 1013.0 |
| 20260906060205 | 61 | 60 | 0.0 | 0.0 | 0.00 | 0.00 | 0.00 | 89 | 1013.1 |
| 20260906055703 | 61 | 60 | 0.0 | 0.0 | 0.00 | 0.00 | 0.00 | 89 | 1013.1 |
| 20260906055204 | 61 | 60 | 0.0 | 0.0 | 0.00 | 0.00 | 0.00 | 89 | 1013.1 |
| 20260906054704 | 61 | 68 | 0.0 | 2.0 | 0.00 | 0.00 | 0.00 | 89 | 1013.1 |
| 20260906054204 | 61 | 69 | 0.0 | 2.0 | 0.00 | 0.00 | 0.00 | 89 | 1013.1 |
| 20260906053703 | 60 | 69 | 0.0 | 0.0 | 0.00 | 0.00 | 0.00 | 89 | 1013.1 |
| 20260906053205 | 60 | 69 | 0.0 | 0.0 | 0.00 | 0.00 | 0.00 | 89 | 1013.1 |
| 20260906052704 | 60 | 69 | 0.0 | 0.0 | 0.00 | 0.00 | 0.00 | 89 | 1013.1 |
| 20260906052204 | 60 | 69 | 0.0 | 0.0 | 0.00 | 0.00 | 0.00 | 89 | 1013.0 |
| 20260906051704 | 60 | 69 | 0.0 | 0.0 | 0.00 | 0.00 | 0.00 | 89 | 1013.1 |
| 20260906051204 | 60 | 69 | 0.0 | 0.0 | 0.00 | 0.00 | 0.00 | 89 | 1013.1 |
| 20260906050704 | 60 | 69 | 0.0 | 0.0 | 0.00 | 0.00 | 0.00 | 89 | 1013.1 |
| 20260906050204 | 60 | 69 | 0.0 | 0.0 | 0.00 | 0.00 | 0.00 | 89 | 1013.1 |
| 20260906045704 | 59 | 69 | 0.0 | 0.0 | 0.00 | 0.00 | 0.00 | 89 | 1013.0 |
| 20260906045203 | 59 | 69 | 0.0 | 0.0 | 0.00 | 0.00 | 0.00 | 89 | 1013.0 |
| 20260906044704 | 59 | 69 | 0.0 | 0.0 | 0.00 | 0.00 | 0.00 | 89 | 1013.0 |
| 20260906044204 | 59 | 69 | 0.0 | 0.0 | 0.00 | 0.00 | 0.00 | 89 | 1013.0 |
| 20260906043703 | 59 | 69 | 0.0 | 0.0 | 0.00 | 0.00 | 0.00 | 88 | 1012.9 |
| 20260906043204 | 59 | 69 | 0.0 | 0.0 | 0.00 | 0.00 | 0.00 | 88 | 1012.9 |
| 20260906042203 | 59 | 69 | 0.0 | 0.0 | 0.00 | 0.00 | 0.00 | 88 | 1012.9 |
| 20260906041704 | 59 | 69 | 0.0 | 0.0 | 0.00 | 0.00 | 0.00 | 88 | 1012.8 |
| 20260906041204 | 59 | 69 | 0.0 | 0.0 | 0.00 | 0.00 | 0.00 | 88 | 1012.8 |
| 20260906040704 | 60 | 69 | 0.0 | 0.0 | 0.00 | 0.00 | 0.00 | 88 | 1012.8 |
| 20260906040204 | 60 | 69 | 0.0 | 0.0 | 0.00 | 0.00 | 0.00 | 88 | 1012.8 |
| 20260906035704 | 60 | 69 | 0.0 | 0.0 | 0.00 | 0.00 | 0.00 | 88 | 1012.8 |
| 20260906035204 | 60 | 69 | 0.0 | 0.0 | 0.00 | 0.00 | 0.00 | 88 | 1012.8 |
| 20260906034704 | 60 | 69 | 0.0 | 0.0 | 0.00 | 0.00 | 0.00 | 88 | 1012.8 |
| 20260906034203 | 60 | 69 | 0.0 | 0.0 | 0.00 | 0.00 | 0.00 | 88 | 1012.8 |
| 20260906033704 | 61 | 69 | 0.0 | 0.0 | 0.00 | 0.00 | 0.00 | 87 | 1012.7 |
| 20260906033204 | 61 | 69 | 0.0 | 0.0 | 0.00 | 0.00 | 0.00 | 87 | 1012.7 |
| 20260906032704 | 61 | 69 | 0.0 | 0.0 | 0.00 | 0.00 | 0.00 | 87 | 1012.7 |
| 20260906031705 | 61 | 69 | 0.0 | 0.0 | 0.00 | 0.00 | 0.00 | 87 | 1012.7 |
| 20260906031204 | 62 | 69 | 0.0 | 0.0 | 0.00 | 0.00 | 0.00 | 87 | 1012.6 |
| 20260906030703 | 62 | 69 | 0.0 | 0.0 | 0.00 | 0.00 | 0.00 | 87 | 1012.6 |
| 20260906030204 | 62 | 69 | 0.0 | 0.0 | 0.00 | 0.00 | 0.00 | 87 | 1012.5 |
| 20260906024704 | 62 | 69 | 0.0 | 0.0 | 0.00 | 0.00 | 0.00 | 87 | 1012.5 |
| 20260906024204 | 62 | 69 | 0.0 | 0.0 | 0.00 | 0.00 | 0.00 | 87 | 1012.5 |
| 20260906023704 | 62 | 69 | 0.0 | 0.0 | 0.00 | 0.00 | 0.00 | 87 | 1012.6 |
| 20260906023204 | 62 | 69 | 0.0 | 0.0 | 0.00 | 0.00 | 0.00 | 87 | 1012.6 |
| 20260906022704 | 62 | 69 | 0.0 | 0.0 | 0.00 | 0.00 | 0.00 | 87 | 1012.6 |
| 20260906022204 | 62 | 69 | 0.0 | 0.0 | 0.00 | 0.00 | 0.00 | 87 | 1012.6 |
| 20260906021704 | 62 | 69 | 0.0 | 0.0 | 0.00 | 0.00 | 0.00 | 87 | 1012.6 |
| 20260906021204 | 62 | 69 | 0.0 | 0.0 | 0.00 | 0.00 | 0.00 | 87 | 1012.5 |
| 20260906020706 | 62 | 69 | 0.0 | 0.0 | 0.00 | 0.00 | 0.00 | 87 | 1012.5 |
| 20260906020204 | 61 | 69 | 0.0 | 0.0 | 0.00 | 0.00 | 0.00 | 87 | 1012.5 |
| 20260906015703 | 61 | 69 | 0.0 | 0.0 | 0.00 | 0.00 | 0.00 | 87 | 1012.4 |
| 20260906015204 | 61 | 69 | 0.0 | 0.0 | 0.00 | 0.00 | 0.00 | 87 | 1012.3 |
| 20260906014704 | 61 | 69 | 0.0 | 0.0 | 0.00 | 0.00 | 0.00 | 87 | 1012.4 |
| 20260906014203 | 61 | 69 | 0.0 | 0.0 | 0.00 | 0.00 | 0.00 | 87 | 1012.3 |
| 20260906013204 | 61 | 69 | 0.0 | 0.0 | 0.00 | 0.00 | 0.00 | 87 | 1012.2 |
| 20260906012704 | 61 | 69 | 0.0 | 0.0 | 0.00 | 0.00 | 0.00 | 87 | 1012.2 |
| 20260906012204 | 61 | 69 | 0.0 | 0.0 | 0.00 | 0.00 | 0.00 | 87 | 1012.1 |
| 20260906011704 | 61 | 69 | 0.0 | 0.0 | 0.00 | 0.00 | 0.00 | 87 | 1012.2 |
| 20260906011204 | 61 | 69 | 0.0 | 0.0 | 0.00 | 0.00 | 0.00 | 86 | 1012.2 |
| 20260906010703 | 61 | 69 | 0.0 | 0.0 | 0.00 | 0.00 | 0.00 | 86 | 1012.2 |
| 20260906010204 | 61 | 69 | 0.0 | 0.0 | 0.00 | 0.00 | 0.00 | 86 | 1012.3 |
| 20260906005704 | 62 | 69 | 0.0 | 0.0 | 0.00 | 0.00 | 0.00 | 86 | 1012.3 |
| 20260906004204 | 62 | 69 | 0.0 | 1.0 | 0.00 | 0.00 | 0.00 | 86 | 1012.1 |
| 20260906003704 | 62 | 69 | 0.0 | 0.0 | 0.00 | 0.00 | 0.00 | 85 | 1012.0 |
| 20260906003204 | 63 | 69 | 0.0 | 0.0 | 0.00 | 0.00 | 0.00 | 85 | 1012.1 |
| 20260906002705 | 63 | 69 | 0.0 | 0.0 | 0.00 | 0.00 | 0.00 | 85 | 1011.9 |
| 20260906002204 | 63 | 69 | 0.0 | 0.0 | 0.00 | 0.00 | 0.00 | 85 | 1011.9 |
| 20260906001705 | 63 | 69 | 0.0 | 0.0 | 0.00 | 0.00 | 0.00 | 85 | 1011.9 |
| 20260906001205 | 63 | 69 | 0.0 | 0.0 | 0.00 | 0.00 | 0.00 | 85 | 1011.9 |
| 20260906000704 | 64 | 69 | 0.0 | 0.0 | 0.00 | 0.00 | 0.00 | 84 | 1011.9 |
| 20260906000204 | 64 | 69 | 0.0 | 0.0 | 0.00 | 0.00 | 0.00 | 84 | 1011.9 |
| 20260905235703 | 64 | 69 | 0.0 | 0.0 | 0.00 | 0.00 | 0.00 | 84 | 1011.9 |
| 20260905235204 | 64 | 69 | 0.0 | 0.0 | 0.00 | 0.00 | 0.00 | 84 | 1011.8 |
| 20260905234703 | 65 | 69 | 0.0 | 0.0 | 0.00 | 0.00 | 0.00 | 83 | 1011.6 |
| 20260905234204 | 65 | 69 | 0.0 | 0.0 | 0.00 | 0.00 | 0.00 | 83 | 1011.6 |
| 20260905233704 | 65 | 69 | 0.0 | 0.0 | 0.00 | 0.00 | 0.00 | 82 | 1011.5 |
| 20260905233204 | 66 | 69 | 0.0 | 0.0 | 0.00 | 0.00 | 0.00 | 82 | 1011.5 |
| 20260905232704 | 66 | 69 | 0.0 | 0.0 | 0.00 | 0.00 | 0.00 | 81 | 1011.4 |
| 20260905232204 | 67 | 69 | 0.0 | 0.0 | 0.00 | 0.00 | 0.00 | 81 | 1011.3 |
| 20260905231204 | 67 | 69 | 0.0 | 0.0 | 0.00 | 0.00 | 0.00 | 79 | 1011.2 |
| 20260905230704 | 67 | 69 | 0.0 | 2.0 | 0.00 | 0.00 | 0.00 | 80 | 1011.2 |
| 20260905230204 | 68 | 68 | 0.0 | 0.0 | 0.00 | 0.00 | 0.00 | 80 | 1011.2 |
| 20260905225704 | 68 | 68 | 0.0 | 0.0 | 0.00 | 0.00 | 0.00 | 79 | 1011.2 |
| 20260905224704 | 69 | 68 | 0.0 | 0.0 | 0.00 | 0.00 | 0.00 | 78 | 1011.3 |
| 20260905224204 | 69 | 68 | 0.0 | 0.0 | 0.00 | 0.00 | 0.00 | 76 | 1011.2 |
| 20260905223704 | 70 | 68 | 0.0 | 1.0 | 0.00 | 0.00 | 0.00 | 75 | 1011.2 |
| 20260905223204 | 70 | 68 | 0.0 | 1.0 | 0.00 | 0.00 | 0.00 | 74 | 1011.2 |
| 20260905222704 | 70 | 68 | 1.0 | 2.0 | 0.00 | 0.00 | 0.00 | 74 | 1011.1 |
| 20260905222203 | 71 | 68 | 1.0 | 3.0 | 0.00 | 0.00 | 0.00 | 74 | 1011.0 |
| 20260905221704 | 71 | 333 | 0.0 | 1.0 | 0.00 | 0.00 | 0.00 | 73 | 1011.0 |
| 20260905221203 | 71 | 333 | 1.0 | 2.0 | 0.00 | 0.00 | 0.00 | 71 | 1011.0 |
| 20260905215703 | 72 | 333 | 2.0 | 3.0 | 0.00 | 0.00 | 0.00 | 70 | 1010.8 |
| 20260905215204 | 72 | 318 | 1.0 | 10.0 | 0.00 | 0.00 | 0.00 | 70 | 1010.7 |
| 20260905214704 | 73 | 334 | 1.0 | 3.0 | 0.00 | 0.00 | 0.00 | 69 | 1010.7 |
| 20260905212704 | 75 | 19 | 2.0 | 7.0 | 0.00 | 0.00 | 0.00 | 66 | 1010.5 |
| 20260905211705 | 75 | 351 | 2.0 | 6.0 | 0.00 | 0.00 | 0.00 | 64 | 1010.5 |
| 20260905211203 | 75 | 199 | 3.0 | 12.0 | 0.00 | 0.00 | 0.00 | 63 | 1010.6 |
| 20260905210704 | 75 | 318 | 2.0 | 5.0 | 0.00 | 0.00 | 0.00 | 65 | 1010.6 |
| 20260905205704 | 76 | 326 | 1.0 | 6.0 | 0.00 | 0.00 | 0.00 | 65 | 1010.3 |
| 20260905205204 | 76 | 235 | 2.0 | 5.0 | 0.00 | 0.00 | 0.00 | 64 | 1010.2 |
| 20260905204704 | 76 | 336 | 2.0 | 7.0 | 0.00 | 0.00 | 0.00 | 64 | 1010.2 |
| 20260905204204 | 77 | 264 | 2.0 | 6.0 | 0.00 | 0.00 | 0.00 | 64 | 1010.2 |
| 20260905203703 | 77 | 334 | 3.0 | 8.0 | 0.00 | 0.00 | 0.00 | 62 | 1010.2 |
| 20260905203204 | 77 | 297 | 3.0 | 7.0 | 0.00 | 0.00 | 0.00 | 63 | 1010.3 |
| 20260905202704 | 77 | 290 | 2.0 | 9.0 | 0.00 | 0.00 | 0.00 | 63 | 1010.2 |
| 20260905202204 | 77 | 294 | 3.0 | 8.0 | 0.00 | 0.00 | 0.00 | 64 | 1010.2 |
| 20260905201704 | 75 | 249 | 2.0 | 3.0 | 0.00 | 0.00 | 0.00 | 66 | 1010.3 |